Weather History for KBGF - January, 2014

Change the Weather History Date:

Thursday, January 16, 2014

  Actual Average (KTHA) Record (KTHA)
Temperature  
Mean Temperature 30 °F -  
Max Temperature 46 °F 45 °F 48 °F (2015)
Min Temperature 15 °F 26 °F 14 °F (2014)
Degree Days  
Heating Degree Days 34    
Moisture  
Dew Point 18 °F    
Average Humidity 63    
Maximum Humidity 100    
Minimum Humidity 31    
Precipitation  
Precipitation 0.00 in - - ()
Sea Level Pressure  
Sea Level Pressure 29.99 in    
Wind  
Wind Speed 3 mph (South)    
Max Wind Speed 13 mph    
Max Gust Speed -    
Visibility 10 miles    
Events      
Averages and records for this station are not official NWS values.
T = Trace of Precipitation, MM = Missing Value Source: NWS Daily Summary

Daily Weather History Graph

Daily Weather History Graph

Search for Another Location

Airport or City:

Trip Planner

Search our weather history database for the weather conditions in past years. The results will help you decide how hot, cold, wet, or windy it might be!

Date:

Astronomy

Jan. 16, 2014 Rise Set
Actual Time 7:51 AM EST 5:56 PM EST
Civil Twilight 7:24 AM EST 6:24 PM EST
Nautical Twilight 6:53 AM EST 6:55 PM EST
Astronomical Twilight 6:22 AM EST 7:25 PM EST
Moon 6:43 PM EST (1/16) 7:48 AM EST (1/16)
Length of Visible Light 10h 59m
Length of Day
10h 04m
Full, 100% of the Moon is Illuminated
Jan 16
Full
Jan 24
Last Quarter
Jan 30
New
Feb 6
First Quarter
Feb 14
Full

Hourly Weather History & Observations

Time (EST) Temp. Windchill Dew Point Humidity Pressure Visibility Wind Dir Wind Speed Gust Speed Precip Events Conditions
12:35 AM 23.0 °F 18.4 °F 17.6 °F 80% 30.09 in 10.0 mi WNW 3.5 mph - N/A   Clear
12:55 AM 23.0 °F - 17.6 °F 80% 30.09 in 10.0 mi Calm Calm - N/A   Clear
1:15 AM 21.2 °F - 17.6 °F 86% 30.10 in 10.0 mi Calm Calm - N/A   Clear
1:35 AM 21.2 °F - 17.6 °F 86% 30.09 in 10.0 mi Calm Calm - N/A   Clear
1:55 AM 21.2 °F - 17.6 °F 86% 30.10 in 10.0 mi Calm Calm - N/A   Clear
2:15 AM 19.4 °F - 17.6 °F 93% 30.09 in 10.0 mi Calm Calm - N/A   Clear
2:35 AM 17.6 °F - 15.8 °F 93% 30.09 in 10.0 mi Calm Calm - N/A   Clear
2:55 AM 17.6 °F - 15.8 °F 93% 30.08 in 10.0 mi Calm Calm - N/A   Clear
3:35 AM 17.6 °F - 15.8 °F 93% 30.07 in 10.0 mi Calm Calm - N/A   Clear
3:55 AM 17.6 °F - 15.8 °F 93% 30.07 in 10.0 mi Calm Calm - N/A   Clear
4:15 AM 17.6 °F - 15.8 °F 93% 30.07 in 10.0 mi Calm Calm - N/A   Clear
4:35 AM 17.6 °F - 15.8 °F 93% 30.07 in 10.0 mi Calm Calm - N/A   Clear
4:55 AM 15.8 °F - 14.0 °F 93% 30.07 in 10.0 mi Calm Calm - N/A   Clear
5:15 AM 17.6 °F - 15.8 °F 93% 30.07 in 10.0 mi Calm Calm - N/A   Clear
5:35 AM 17.6 °F - 15.8 °F 93% 30.09 in 10.0 mi Calm Calm - N/A   Clear
5:55 AM 15.8 °F - 12.2 °F 86% 30.09 in 10.0 mi Calm Calm - N/A   Clear
6:15 AM 15.8 °F 10.2 °F 14.0 °F 93% 30.07 in 10.0 mi SE 3.5 mph - N/A   Clear
6:35 AM 15.8 °F - 15.8 °F 100% 30.08 in 10.0 mi Calm Calm - N/A   Clear
6:55 AM 17.6 °F 12.3 °F 15.8 °F 93% 30.07 in 10.0 mi SE 3.5 mph - N/A   Clear
7:15 AM 17.6 °F - 15.8 °F 93% 30.07 in 10.0 mi Calm Calm - N/A   Clear
7:35 AM 17.6 °F 12.3 °F 15.8 °F 93% 30.06 in 10.0 mi SSE 3.5 mph - N/A   Clear
7:55 AM 17.6 °F - 15.8 °F 93% 30.07 in 10.0 mi Calm Calm - N/A   Clear
8:15 AM 17.6 °F 10.7 °F 15.8 °F 93% 30.07 in 10.0 mi ESE 4.6 mph - N/A   Clear
8:35 AM 19.4 °F 10.4 °F 17.6 °F 93% 30.07 in 10.0 mi ESE 6.9 mph - N/A   Clear
8:55 AM 21.2 °F 14.9 °F 19.4 °F 93% 30.07 in 10.0 mi SE 4.6 mph - N/A   Scattered Clouds
9:15 AM 24.8 °F - 19.4 °F 80% 30.09 in 10.0 mi Calm Calm - N/A   Mostly Cloudy
9:35 AM 24.8 °F 20.5 °F 19.4 °F 80% 30.09 in 10.0 mi SSE 3.5 mph - N/A   Scattered Clouds
9:55 AM 26.6 °F - 19.4 °F 74% 30.08 in 10.0 mi Calm Calm - N/A   Mostly Cloudy
10:15 AM 28.4 °F 23.3 °F 19.4 °F 69% 30.08 in 10.0 mi SSE 4.6 mph - N/A   Mostly Cloudy
10:35 AM 28.4 °F 21.2 °F 17.6 °F 64% 30.08 in 10.0 mi South 6.9 mph - N/A   Partly Cloudy
10:55 AM 32.0 °F 28.7 °F 17.6 °F 55% 30.07 in 10.0 mi Variable 3.5 mph - N/A   Partly Cloudy
11:15 AM 33.8 °F 29.6 °F 17.6 °F 52% 30.05 in 10.0 mi South 4.6 mph - N/A   Partly Cloudy
11:35 AM 35.6 °F 30.7 °F 15.8 °F 44% 30.05 in 10.0 mi SSW 5.8 mph - N/A   Partly Cloudy
11:55 AM 35.6 °F 28.6 °F 12.2 °F 38% 30.02 in 10.0 mi SSW 9.2 mph - N/A   Partly Cloudy
12:15 PM 37.4 °F 32.1 °F 14.0 °F 38% 30.00 in 10.0 mi SW 6.9 mph - N/A   Clear
12:35 PM 39.2 °F 33.0 °F 15.8 °F 39% 29.98 in 10.0 mi SSW 9.2 mph - N/A   Clear
12:55 PM 39.2 °F 33.6 °F 15.8 °F 39% 29.97 in 10.0 mi SSW 8.1 mph - N/A   Clear
1:15 PM 41.0 °F 34.7 °F 14.0 °F 33% 29.95 in 10.0 mi SSW 10.4 mph - N/A   Clear
1:35 PM 42.8 °F 37.5 °F 15.8 °F 34% 29.94 in 10.0 mi SSW 9.2 mph - N/A   Clear
1:55 PM 42.8 °F 37.5 °F 15.8 °F 34% 29.92 in 10.0 mi South 9.2 mph - N/A   Clear
2:15 PM 44.6 °F 41.4 °F 15.8 °F 31% 29.90 in 10.0 mi South 5.8 mph - N/A   Clear
2:35 PM 44.6 °F 39.7 °F 17.6 °F 34% 29.90 in 10.0 mi South 9.2 mph - N/A   Clear
2:55 PM 44.6 °F 39.7 °F 17.6 °F 34% 29.89 in 10.0 mi SSW 9.2 mph - N/A   Clear
3:35 PM 44.6 °F 39.7 °F 19.4 °F 37% 29.88 in 10.0 mi SSW 9.2 mph - N/A   Partly Cloudy
3:55 PM 44.6 °F 39.2 °F 19.4 °F 37% 29.87 in 10.0 mi SSW 10.4 mph - N/A   Scattered Clouds
4:15 PM 46.4 °F 40.7 °F 19.4 °F 34% 29.86 in 10.0 mi South 12.7 mph - N/A   Scattered Clouds
4:35 PM 46.4 °F 41.9 °F 19.4 °F 34% 29.87 in 10.0 mi SSW 9.2 mph - N/A   Scattered Clouds
4:55 PM 44.6 °F 40.2 °F 19.4 °F 37% 29.87 in 10.0 mi South 8.1 mph - N/A   Scattered Clouds
5:15 PM 44.6 °F 39.2 °F 19.4 °F 37% 29.87 in 10.0 mi SSW 10.4 mph - N/A   Clear
5:35 PM 42.8 °F 37.0 °F 19.4 °F 39% 29.88 in 10.0 mi SSW 10.4 mph - N/A   Clear
5:55 PM 42.8 °F 38.6 °F 19.4 °F 39% 29.89 in 10.0 mi SSW 6.9 mph - N/A   Clear
6:15 PM 39.2 °F 35.9 °F 19.4 °F 45% 29.90 in 10.0 mi South 4.6 mph - N/A   Clear
6:35 PM 39.2 °F 35.0 °F 19.4 °F 45% 29.90 in 10.0 mi South 5.8 mph - N/A   Clear
6:55 PM 37.4 °F 33.8 °F 19.4 °F 48% 29.91 in 10.0 mi SSE 4.6 mph - N/A   Clear
7:15 PM 35.6 °F 31.7 °F 19.4 °F 52% 29.92 in 10.0 mi SSE 4.6 mph - N/A   Clear
7:35 PM 35.6 °F 32.8 °F 21.2 °F 56% 29.92 in 10.0 mi SSE 3.5 mph - N/A   Clear
7:55 PM 33.8 °F 30.8 °F 21.2 °F 60% 29.93 in 10.0 mi SE 3.5 mph - N/A   Mostly Cloudy
8:15 PM 35.6 °F - 21.2 °F 56% 29.93 in 10.0 mi Calm Calm - N/A   Overcast
8:35 PM 35.6 °F - 21.2 °F 56% 29.93 in 10.0 mi Calm Calm - N/A   Overcast
8:55 PM 35.6 °F 30.7 °F 21.2 °F 56% 29.93 in 10.0 mi South 5.8 mph - N/A   Overcast
9:15 PM 37.4 °F 32.1 °F 21.2 °F 52% 29.93 in 10.0 mi South 6.9 mph - N/A   Overcast
9:35 PM 39.2 °F 34.2 °F 21.2 °F 49% 29.93 in 10.0 mi SSE 6.9 mph - N/A   Overcast
9:55 PM 39.2 °F 35.9 °F 21.2 °F 49% 29.93 in 10.0 mi SSE 4.6 mph - N/A   Overcast
10:15 PM 41.0 °F 37.1 °F 21.2 °F 45% 29.93 in 10.0 mi South 5.8 mph - N/A   Overcast
10:35 PM 42.8 °F 37.0 °F 21.2 °F 42% 29.92 in 10.0 mi South 10.4 mph - N/A   Overcast
10:55 PM 42.8 °F 39.3 °F 21.2 °F 42% 29.92 in 10.0 mi South 5.8 mph - N/A   Overcast
11:15 PM 42.8 °F 41.1 °F 23.0 °F 46% 29.92 in 10.0 mi Variable 3.5 mph - N/A   Overcast
11:35 PM 42.8 °F 41.1 °F 23.0 °F 46% 29.93 in 10.0 mi West 3.5 mph - N/A   Overcast
11:55 PM 41.0 °F 35.2 °F 26.6 °F 57% 29.93 in 10.0 mi WNW 9.2 mph - N/A   Overcast